[[{"header":{"parameterUnit":"m.s-1","parameterCategory":2,"la1":30.2991,"la2":30.254,"lo1":-89.0895,"lo2":-89.0444,"dy":0.0017,"dx":0.0017,"nx":28,"ny":28,"refTime":"2025-11-10T09:00:00:Z","depth":"0","parameterNumber":2,"parameterNumberName":"U-component_of_CURRENTS"},"data":[0,0,0,0,0,0,0,0,0,0,0,0,0,0,0,0,0,0,0,0,0,0,0,0,0,0,0,0,0,0,0,0,0,0,0,0,0,0,0,0,0,0,0,0,0,0,0,0,0,0,0,0,0,0,0,0,0,0,-0.2694,-0.2695,0,-0.2719,-0.2719,-0.272,-0.2687,-0.2686,-0.2685,-0.2684,-0.2693,-0.2694,-0.2695,0,0,0,0,0,0,0,0,0,0,0,0,0,-0.2646,-0.2647,-0.2694,-0.2695,-0.2695,-0.2719,-0.2719,-0.272,-0.2687,-0.2686,-0.2685,-0.2683,-0.2693,-0.2694,-0.2695,0,0,0,0,0,0,0,0,0,0,0,0,0,-0.2667,-0.2647,-0.2694,-0.2683,-0.2682,-0.2719,-0.2719,-0.272,-0.2687,-0.2686,-0.2684,-0.2683,-0.2692,-0.2694,-0.2696,-0.2738,0,0,-0.2701,-0.2702,0,0,0,0,0,0,0,0,-0.2666,-0.2669,-0.2684,-0.2684,-0.2683,-0.27,-0.2706,-0.2725,-0.2688,-0.2684,-0.2684,-0.2682,-0.2696,-0.2697,-0.2703,-0.2738,-0.2738,-0.2701,-0.2702,-0.2703,-0.2704,0,0,0,0,0,0,0,-0.2665,-0.2668,-0.2702,-0.2685,-0.2684,-0.2687,-0.2687,-0.271,-0.2697,-0.2684,-0.2682,-0.2688,-0.2695,-0.2702,-0.2703,-0.2739,-0.2701,-0.2703,-0.2704,-0.2705,-0.2811,-0.2813,0,0,0,0,0,0,-0.2665,-0.2666,-0.2702,-0.2703,-0.2673,-0.2689,-0.269,-0.2695,-0.2697,-0.2696,-0.2689,-0.2686,-0.2699,-0.2701,-0.2703,-0.2749,-0.2703,-0.2705,-0.2706,-0.281,-0.2812,-0.2814,0,0,0,0,0,0,-0.2664,-0.2668,-0.2701,-0.2687,-0.2691,-0.2691,-0.2697,-0.2696,-0.2695,-0.2701,-0.27,-0.2688,-0.2698,-0.2701,-0.2725,-0.2749,-0.2706,-0.2707,-0.2807,-0.281,-0.2813,-0.2843,0,0,0,0,0,0,-0.2663,-0.2668,-0.2668,-0.2687,-0.2692,-0.2727,-0.2699,-0.2698,-0.2702,-0.2698,-0.2701,-0.27,-0.2697,-0.2723,-0.2727,-0.2751,-0.2709,-0.2805,-0.2809,-0.2812,-0.284,-0.2847,-0.2852,0,0,0,0,0,-0.2661,-0.2674,-0.2668,-0.2672,-0.2693,-0.2728,-0.2731,-0.2725,-0.2704,-0.2715,-0.2714,-0.2699,-0.2747,-0.2726,-0.273,-0.2755,-0.2804,-0.2808,-0.2812,-0.2837,-0.2845,-0.2852,0,0,0,0,0,0,-0.2652,-0.2673,-0.2666,-0.2683,-0.2704,-0.2723,-0.2731,-0.2728,-0.2736,-0.2726,-0.2721,-0.2722,-0.2756,-0.2757,-0.2733,-0.2798,-0.2774,-0.2779,-0.2792,-0.28,-0.2806,-0.2812,-0.271,0,0,0,0,0,-0.2651,-0.2662,-0.2687,-0.2698,-0.271,-0.2719,-0.2729,-0.273,-0.2742,-0.2742,-0.2745,-0.2755,-0.2781,-0.2787,-0.281,-0.2843,-0.2827,-0.2864,-0.287,-0.2875,-0.2886,-0.2897,-0.2904,-0.2827,-0.2827,-0.2826,0,0,-0.2649,-0.2662,-0.2666,-0.2696,-0.2706,-0.2737,-0.272,-0.2742,-0.2764,-0.2745,-0.2769,-0.278,-0.2797,-0.2835,-0.2849,-0.2833,-0.2883,-0.288,-0.2884,-0.2892,-0.2902,-0.2909,-0.2916,-0.2829,-0.2829,-0.2828,0,0,-0.2657,-0.2663,-0.2677,-0.2702,-0.2728,-0.2745,-0.2752,-0.2777,-0.2783,-0.2815,-0.2811,-0.2839,-0.2864,-0.2888,-0.2902,-0.296,-0.292,-0.2961,-0.299,-0.3001,-0.3007,-0.3012,-0.2967,-0.2968,-0.2958,-0.2958,-0.2958,0,-0.2652,-0.2672,-0.2689,-0.2716,-0.2738,-0.275,-0.278,-0.2802,-0.2829,-0.2846,-0.2826,-0.2885,-0.2897,-0.2954,-0.297,-0.2975,-0.2947,-0.2955,-0.3006,-0.3012,-0.3016,-0.297,-0.297,-0.296,-0.296,-0.2959,-0.2959,0,-0.2674,-0.2694,-0.2709,-0.2745,-0.2776,-0.2805,-0.2843,-0.2869,-0.2874,-0.2894,-0.2943,-0.2961,-0.2994,-0.3006,-0.3003,-0.3052,-0.3008,-0.3014,-0.2981,-0.3026,-0.2974,-0.2974,-0.2963,-0.2962,-0.2961,-0.2961,0,0,-0.2648,-0.2711,-0.2714,-0.2736,-0.2793,-0.282,-0.2873,-0.2927,-0.2956,-0.2982,-0.3017,-0.307,-0.3069,-0.3087,-0.309,-0.31,-0.31,-0.3065,-0.3065,-0.3008,-0.3072,-0.3015,-0.3008,-0.3103,-0.3104,-0.3105,-0.3009,0,-0.2656,-0.2705,-0.2742,-0.2793,-0.2823,-0.2869,-0.2918,-0.2969,-0.3002,-0.3041,-0.3072,-0.3106,-0.3103,-0.311,-0.3127,-0.3116,-0.3107,-0.3123,-0.305,-0.3047,-0.2981,-0.3011,-0.2926,-0.2833,-0.3009,-0.3009,-0.3009,0,-0.2659,-0.2693,-0.2742,-0.2816,-0.2834,-0.2869,-0.2945,-0.2992,-0.3063,-0.3089,-0.3133,-0.3147,-0.3183,-0.3164,-0.3162,-0.3163,-0.3123,-0.3102,-0.3098,-0.3039,-0.2993,-0.2826,-0.2826,-0.2806,-0.3008,-0.3008,-0.3009,0,-0.2619,-0.2693,-0.2728,-0.2753,-0.284,-0.287,-0.2915,-0.2996,-0.3039,-0.3108,-0.3135,-0.3182,-0.319,-0.3177,-0.3145,-0.3144,-0.3115,-0.3109,-0.3014,-0.3006,-0.2921,-0.2905,-0.2888,-0.3101,-0.3101,-0.3102,-0.3102,0,-0.2608,-0.2633,-0.2707,-0.2723,-0.2768,-0.2841,-0.2894,-0.2952,-0.3032,-0.3077,-0.3142,-0.3174,-0.3194,-0.3184,-0.3147,-0.3076,-0.3114,-0.3021,-0.2993,-0.2925,-0.2912,-0.2881,-0.2893,-0.3098,-0.3099,-0.31,-0.31,0,-0.2548,-0.2602,-0.264,-0.2721,-0.2746,-0.277,-0.2863,-0.29,-0.2991,-0.3047,-0.3065,-0.3154,-0.3141,-0.3136,-0.3103,-0.3064,-0.2954,-0.2972,-0.2865,-0.2828,-0.2721,-0.2738,-0.2659,-0.2574,-0.2843,-0.2841,-0.284,0,-0.2519,-0.2531,-0.2607,-0.262,-0.2649,-0.2702,-0.2737,-0.2852,-0.2895,-0.3026,-0.3037,-0.3074,-0.3087,-0.3027,-0.2967,-0.2879,-0.2861,-0.2743,-0.2752,-0.2708,-0.2707,-0.2697,-0.263,-0.2625,-0.2622,-0.2619,-0.2617,0,-0.2448,-0.2472,-0.2498,-0.2526,-0.2557,-0.2602,-0.266,-0.2696,-0.2826,-0.2888,-0.2954,-0.2983,-0.2967,-0.2881,-0.2797,-0.2726,-0.2678,-0.2687,-0.2684,-0.2576,-0.2522,-0.2427,-0.2663,-0.2594,-0.2596,-0.2598,-0.2599,-0.26,-0.2374,-0.237,-0.2396,-0.2411,-0.2446,-0.2467,-0.2461,-0.2549,-0.2605,-0.2682,-0.2798,-0.2844,-0.2832,-0.2716,-0.2624,-0.2474,-0.2502,-0.2411,-0.2438,-0.2435,-0.2356,-0.2521,-0.2409,-0.241,-0.2411,-0.2412,-0.2413,0,-0.2267,-0.227,-0.2277,-0.2287,-0.2266,-0.2331,-0.2376,-0.2352,-0.2368,-0.2516,-0.2571,-0.2687,-0.2586,-0.255,-0.2422,-0.229,-0.2195,-0.2214,-0.2195,-0.2139,-0.2315,-0.2312,-0.2122,-0.2122,-0.2122,-0.2122,-0.2122,-0.2122,-0.2211,-0.2169,-0.217,-0.2092,-0.2094,-0.2024,-0.2018,-0.2017,-0.2085,-0.2188,-0.2341,-0.2509,-0.256,-0.2588,-0.2384,-0.2229,-0.212,-0.2041,-0.2034,-0.22,-0.2221,-0.2242,-0.2242,-0.2041,-0.2041,-0.1784,-0.1782,-0.1781]},{"header":{"parameterUnit":"m.s-1","parameterCategory":2,"la1":30.2991,"la2":30.254,"lo1":-89.0895,"lo2":-89.0444,"dy":0.0017,"dx":0.0017,"nx":28,"ny":28,"refTime":"2025-11-10T09:00:00:Z","depth":"0","parameterNumber":3,"parameterNumberName":"V-component_of_CURRENTS"},"data":[0,0,0,0,0,0,0,0,0,0,0,0,0,0,0,0,0,0,0,0,0,0,0,0,0,0,0,0,0,0,0,0,0,0,0,0,0,0,0,0,0,0,0,0,0,0,0,0,0,0,0,0,0,0,0,0,0,0,-0.0388,-0.0388,0,-0.0334,-0.0334,-0.0333,-0.0289,-0.0288,-0.0288,-0.0287,-0.0189,-0.0186,-0.0184,0,0,0,0,0,0,0,0,0,0,0,0,0,-0.0423,-0.0423,-0.0388,-0.0388,-0.0387,-0.0335,-0.0334,-0.0333,-0.0289,-0.0288,-0.0288,-0.0287,-0.0189,-0.0187,-0.0184,0,0,0,0,0,0,0,0,0,0,0,0,0,-0.0392,-0.0423,-0.0388,-0.0359,-0.0356,-0.0335,-0.0334,-0.0333,-0.0289,-0.0288,-0.0288,-0.0287,-0.019,-0.0187,-0.0184,-0.0175,0,0,-0.0173,-0.0172,0,0,0,0,0,0,0,0,-0.0394,-0.0391,-0.0364,-0.0361,-0.0358,-0.0318,-0.031,-0.0278,-0.0289,-0.0314,-0.0287,-0.0287,-0.0229,-0.0222,-0.0213,-0.017,-0.0166,-0.0173,-0.0171,-0.0169,-0.0168,0,0,0,0,0,0,0,-0.0396,-0.0392,-0.0366,-0.0364,-0.036,-0.0339,-0.0334,-0.0303,-0.0274,-0.0311,-0.0308,-0.0304,-0.0226,-0.0216,-0.021,-0.0164,-0.0173,-0.017,-0.0168,-0.0167,-0.0101,-0.0102,0,0,0,0,0,0,-0.0407,-0.0395,-0.0368,-0.0365,-0.0376,-0.0339,-0.0333,-0.0331,-0.0275,-0.0266,-0.0304,-0.0302,-0.0222,-0.0214,-0.0206,-0.0199,-0.0169,-0.0166,-0.0164,-0.0101,-0.0101,-0.0102,0,0,0,0,0,0,-0.0408,-0.0405,-0.037,-0.0379,-0.0373,-0.0339,-0.0337,-0.033,-0.032,-0.027,-0.026,-0.0301,-0.0222,-0.0211,-0.0188,-0.0195,-0.0165,-0.0162,-0.0101,-0.0101,-0.0102,-0.018,0,0,0,0,0,0,-0.0409,-0.0406,-0.0409,-0.038,-0.0373,-0.0367,-0.0337,-0.033,-0.0318,-0.0315,-0.0264,-0.0254,-0.022,-0.0194,-0.0185,-0.0189,-0.0159,-0.01,-0.0101,-0.0101,-0.0177,-0.0183,-0.0188,0,0,0,0,0,-0.041,-0.0421,-0.041,-0.0406,-0.0379,-0.0367,-0.0362,-0.0335,-0.0319,-0.0322,-0.0289,-0.0256,-0.019,-0.0192,-0.0181,-0.0185,-0.01,-0.0101,-0.0101,-0.0174,-0.0182,-0.0188,0,0,0,0,0,0,-0.0439,-0.0417,-0.0404,-0.0407,-0.0392,-0.036,-0.036,-0.0341,-0.0317,-0.0311,-0.0263,-0.0251,-0.0232,-0.0198,-0.0201,-0.0167,-0.0138,-0.0137,-0.0197,-0.0204,-0.0209,-0.0215,-0.0156,0,0,0,0,0,-0.0447,-0.0449,-0.0424,-0.0428,-0.0422,-0.0391,-0.0383,-0.0367,-0.0341,-0.033,-0.0294,-0.0256,-0.0227,-0.0209,-0.0178,-0.0162,-0.0117,-0.0155,-0.0161,-0.0166,-0.0163,-0.0104,-0.0104,-0.0104,-0.0104,-0.0104,0,0,-0.0459,-0.0447,-0.0447,-0.0434,-0.0417,-0.0423,-0.0385,-0.0379,-0.0381,-0.0322,-0.0313,-0.0275,-0.0228,-0.0211,-0.0199,-0.0184,-0.0145,-0.0167,-0.0172,-0.0165,-0.0104,-0.0104,-0.0104,-0.0104,-0.0104,-0.0104,0,0,-0.049,-0.0473,-0.0487,-0.0481,-0.0465,-0.0447,-0.0449,-0.0421,-0.0406,-0.0394,-0.0352,-0.0319,-0.0278,-0.0243,-0.0221,-0.0237,-0.0178,-0.0227,-0.0258,-0.0201,-0.02,-0.0199,-0.0157,-0.0152,-0.0228,-0.0228,-0.0228,0,-0.0506,-0.0521,-0.0491,-0.0506,-0.0507,-0.0463,-0.0484,-0.0463,-0.0432,-0.042,-0.0401,-0.033,-0.0291,-0.0262,-0.0269,-0.0249,-0.0211,-0.024,-0.0209,-0.0206,-0.0204,-0.0161,-0.0154,-0.0232,-0.0232,-0.0231,-0.0231,0,-0.055,-0.0562,-0.0571,-0.0575,-0.0572,-0.0581,-0.0553,-0.0542,-0.0515,-0.0488,-0.0452,-0.0395,-0.035,-0.0334,-0.0307,-0.0273,-0.0251,-0.0225,-0.0194,-0.0209,-0.0162,-0.0154,-0.0237,-0.0236,-0.0235,-0.0234,0,0,-0.0587,-0.0601,-0.0605,-0.0625,-0.0611,-0.0617,-0.0615,-0.06,-0.0597,-0.0548,-0.0532,-0.0475,-0.0429,-0.04,-0.0353,-0.0303,-0.026,-0.0263,-0.0259,-0.0227,-0.0143,-0.011,-0.0097,-0.0228,-0.0227,-0.0226,-0.0123,0,-0.0633,-0.0685,-0.0672,-0.0718,-0.0743,-0.0706,-0.071,-0.0686,-0.065,-0.062,-0.0542,-0.0508,-0.0459,-0.0436,-0.0378,-0.0291,-0.0238,-0.0291,-0.0128,-0.0123,-0.0096,-0.0085,-0.0069,0.0026,-0.0114,-0.0112,-0.0111,0,-0.0683,-0.0713,-0.0768,-0.0797,-0.0803,-0.0816,-0.081,-0.0807,-0.0745,-0.0713,-0.065,-0.0584,-0.0507,-0.0458,-0.0309,-0.0345,-0.0251,-0.0176,-0.017,-0.0102,-0.0073,0.0022,0.0048,0.0243,-0.0097,-0.0098,-0.0099,0,-0.0738,-0.0781,-0.0831,-0.0841,-0.086,-0.0871,-0.0872,-0.0833,-0.0834,-0.0763,-0.0744,-0.0637,-0.0581,-0.045,-0.0298,-0.0301,-0.0125,-0.0107,0.0015,0.0017,0.0083,0.009,0.0316,0.0011,0.0011,0.0011,0.0011,0,-0.0798,-0.0838,-0.086,-0.0891,-0.0946,-0.0929,-0.0963,-0.0942,-0.0905,-0.0909,-0.0793,-0.0756,-0.0574,-0.0451,-0.0311,-0.0123,-0.0131,0.0017,0.0053,0.0054,0.0057,0.0272,0.0362,0.0015,0.0014,0.0013,0.0012,0,-0.0854,-0.0866,-0.0932,-0.0965,-0.0977,-0.1016,-0.1038,-0.1057,-0.1005,-0.1,-0.098,-0.0841,-0.0682,-0.0494,-0.0276,-0.0143,0.0153,0.0106,0.0087,0.012,0.0405,0.0487,0.0744,0.0836,0.0253,0.0254,0.0256,0,-0.0888,-0.0925,-0.0994,-0.1039,-0.1057,-0.1103,-0.1136,-0.1113,-0.1128,-0.1054,-0.1054,-0.0895,-0.0786,-0.0451,-0.0185,0.0074,0.023,0.0254,0.026,0.0437,0.0556,0.0611,0.0673,0.0312,0.0313,0.0315,0.0316,0,-0.0953,-0.0973,-0.1028,-0.1124,-0.1176,-0.1236,-0.1272,-0.13,-0.1267,-0.1244,-0.118,-0.1083,-0.0745,-0.0436,-0.0074,0.0092,0.0399,0.029,0.0493,0.0643,0.0701,0.0799,0.0217,0.0328,0.0327,0.0326,0.0325,0.0325,-0.0992,-0.105,-0.1122,-0.1209,-0.1281,-0.1354,-0.1402,-0.1427,-0.1448,-0.1415,-0.1292,-0.1131,-0.0635,-0.0123,0.0083,0.0547,0.0525,0.0689,0.0779,0.082,0.091,0.0345,0.0483,0.0483,0.0483,0.0483,0.0482,0,-0.1043,-0.1107,-0.1201,-0.1306,-0.1401,-0.1414,-0.1485,-0.1517,-0.1551,-0.1486,-0.1405,-0.0912,-0.0401,0.0085,0.0745,0.1021,0.1077,0.1165,0.1262,0.1304,0.0829,0.0832,0.103,0.103,0.1029,0.1029,0.1029,0.1029,-0.1071,-0.1171,-0.1223,-0.1384,-0.1459,-0.1564,-0.1607,-0.1635,-0.1601,-0.1467,-0.124,-0.1059,-0.029,0.0837,0.148,0.1537,0.1759,0.1747,0.1874,0.1567,0.1529,0.1493,0.152,0.1859,0.186,0.2306,0.2311,0.2314]}],[{"header":{"parameterUnit":"m.s-1","parameterCategory":2,"la1":30.2991,"la2":30.254,"lo1":-89.0895,"lo2":-89.0444,"dy":0.0017,"dx":0.0017,"nx":28,"ny":28,"refTime":"2025-11-10T09:00:00:Z","depth":"2","parameterNumber":2,"parameterNumberName":"U-component_of_CURRENTS"},"data":[0,0,0,0,0,0,0,0,0,0,0,0,0,0,0,0,0,0,0,0,0,0,0,0,0,0,0,0,0,0,0,0,0,0,0,0,0,0,0,0,0,0,0,0,0,0,0,0,0,0,0,0,0,0,0,0,0,0,-0.2631,-0.2631,0,-0.2658,-0.2658,-0.2659,-0.263,-0.2629,-0.2628,-0.2627,-0.2637,-0.2638,-0.2639,0,0,0,0,0,0,0,0,0,0,0,0,0,-0.2578,-0.2579,-0.2631,-0.2631,-0.2632,-0.2658,-0.2658,-0.2659,-0.263,-0.2629,-0.2628,-0.2627,-0.2636,-0.2638,-0.2639,0,0,0,0,0,0,0,0,0,0,0,0,0,-0.2601,-0.2579,-0.2631,-0.2622,-0.2622,-0.2658,-0.2658,-0.2659,-0.263,-0.2629,-0.2627,-0.2626,-0.2636,-0.2638,-0.2639,-0.2678,0,0,-0.2644,-0.2645,0,0,0,0,0,0,0,0,-0.26,-0.2603,-0.2623,-0.2623,-0.2622,-0.2641,-0.2644,-0.2665,-0.2631,-0.2625,-0.2627,-0.2625,-0.2639,-0.264,-0.2646,-0.2679,-0.2679,-0.2645,-0.2646,-0.2646,-0.2647,0,0,0,0,0,0,0,-0.2598,-0.2602,-0.264,-0.2624,-0.2623,-0.2626,-0.2627,-0.2648,-0.2638,-0.2625,-0.2624,-0.263,-0.2638,-0.2644,-0.2646,-0.2679,-0.2645,-0.2646,-0.2647,-0.2648,-0.275,-0.2752,0,0,0,0,0,0,-0.2599,-0.26,-0.2639,-0.2641,-0.261,-0.2628,-0.2629,-0.2635,-0.2638,-0.2638,-0.2632,-0.2629,-0.2642,-0.2644,-0.2646,-0.2692,-0.2646,-0.2648,-0.2649,-0.2748,-0.275,-0.2752,0,0,0,0,0,0,-0.2598,-0.2602,-0.2638,-0.2623,-0.2627,-0.263,-0.2637,-0.2636,-0.2637,-0.2643,-0.2642,-0.2632,-0.2641,-0.2644,-0.2668,-0.2692,-0.2649,-0.265,-0.2746,-0.2749,-0.2751,-0.2783,0,0,0,0,0,0,-0.2596,-0.2602,-0.2603,-0.2623,-0.2628,-0.2665,-0.2638,-0.2638,-0.2644,-0.2641,-0.2644,-0.2643,-0.264,-0.2666,-0.267,-0.2693,-0.2652,-0.2744,-0.2748,-0.2751,-0.278,-0.2786,-0.2792,0,0,0,0,0,-0.2594,-0.2608,-0.2603,-0.2607,-0.2631,-0.2666,-0.267,-0.2665,-0.2646,-0.2657,-0.2657,-0.2643,-0.2689,-0.2669,-0.2673,-0.2697,-0.2743,-0.2747,-0.275,-0.2777,-0.2785,-0.2792,0,0,0,0,0,0,-0.2585,-0.2607,-0.2602,-0.262,-0.2642,-0.2662,-0.2671,-0.2669,-0.2678,-0.2669,-0.2664,-0.2665,-0.2699,-0.2698,-0.2676,-0.2739,-0.2715,-0.2719,-0.2734,-0.2741,-0.2747,-0.2752,-0.2653,0,0,0,0,0,-0.2585,-0.2596,-0.2623,-0.2635,-0.2647,-0.2658,-0.2668,-0.267,-0.2684,-0.2684,-0.2688,-0.2698,-0.2722,-0.2729,-0.275,-0.2782,-0.2766,-0.2803,-0.2809,-0.2814,-0.2823,-0.2833,-0.284,-0.2765,-0.2765,-0.2765,0,0,-0.2583,-0.2597,-0.2602,-0.2633,-0.2645,-0.2675,-0.266,-0.2683,-0.2705,-0.2687,-0.2712,-0.2722,-0.2737,-0.2774,-0.2789,-0.2772,-0.2822,-0.2818,-0.2822,-0.2829,-0.2838,-0.2845,-0.2851,-0.2767,-0.2767,-0.2766,0,0,-0.2592,-0.26,-0.2615,-0.264,-0.2667,-0.2684,-0.2692,-0.2718,-0.2724,-0.2757,-0.2752,-0.2779,-0.2804,-0.2827,-0.2839,-0.2896,-0.2857,-0.2897,-0.2926,-0.2936,-0.2941,-0.2946,-0.2905,-0.2906,-0.2895,-0.2895,-0.2895,0,-0.2588,-0.2609,-0.2626,-0.2654,-0.2675,-0.269,-0.2719,-0.2741,-0.277,-0.2786,-0.2768,-0.2825,-0.2836,-0.2889,-0.2905,-0.291,-0.2885,-0.2892,-0.2941,-0.2946,-0.2951,-0.2908,-0.2908,-0.2897,-0.2896,-0.2896,-0.2896,0,-0.261,-0.2631,-0.2647,-0.2683,-0.2714,-0.2743,-0.2781,-0.2807,-0.2813,-0.2833,-0.288,-0.2898,-0.2929,-0.2941,-0.2938,-0.2985,-0.2944,-0.2948,-0.2916,-0.296,-0.2912,-0.2912,-0.29,-0.2899,-0.2898,-0.2898,0,0,-0.2586,-0.2649,-0.2652,-0.2674,-0.2731,-0.2758,-0.281,-0.2861,-0.2889,-0.2917,-0.295,-0.3001,-0.3001,-0.3017,-0.3021,-0.3031,-0.3033,-0.2999,-0.2998,-0.2945,-0.3008,-0.2949,-0.2942,-0.3035,-0.3036,-0.3037,-0.2948,0,-0.2594,-0.2643,-0.2679,-0.273,-0.2759,-0.2804,-0.2852,-0.2901,-0.2933,-0.2971,-0.3001,-0.3034,-0.3033,-0.304,-0.3057,-0.3047,-0.304,-0.3053,-0.2985,-0.2982,-0.2916,-0.2944,-0.2716,-0.2617,-0.2948,-0.2948,-0.2948,0,-0.2598,-0.2631,-0.268,-0.2751,-0.2769,-0.2804,-0.2876,-0.2921,-0.2989,-0.3015,-0.3057,-0.3072,-0.3108,-0.309,-0.309,-0.3092,-0.3054,-0.3035,-0.3032,-0.297,-0.2926,-0.2636,-0.2604,-0.2948,-0.2948,-0.2948,-0.2948,0,-0.2558,-0.2631,-0.2665,-0.269,-0.2775,-0.2804,-0.2847,-0.2925,-0.2965,-0.3032,-0.3058,-0.3104,-0.3113,-0.3103,-0.3075,-0.3075,-0.3048,-0.3042,-0.2949,-0.2942,-0.2734,-0.2708,-0.3035,-0.3035,-0.3035,-0.3036,-0.3036,0,-0.2547,-0.2572,-0.2646,-0.2661,-0.2704,-0.2775,-0.2825,-0.2881,-0.2958,-0.2999,-0.3064,-0.3094,-0.3117,-0.311,-0.3076,-0.3009,-0.3048,-0.2955,-0.2929,-0.2736,-0.2713,-0.3001,-0.2998,-0.3032,-0.3033,-0.3034,-0.3034,0,-0.2488,-0.2542,-0.2579,-0.2659,-0.2683,-0.2706,-0.2795,-0.283,-0.2918,-0.297,-0.2988,-0.3075,-0.3066,-0.3064,-0.3036,-0.2997,-0.2948,-0.291,-0.2661,-0.2609,-0.2822,-0.2823,-0.2788,-0.2785,-0.2783,-0.2782,-0.278,0,-0.2461,-0.2473,-0.2547,-0.256,-0.2589,-0.264,-0.2673,-0.2784,-0.2822,-0.2949,-0.2958,-0.2998,-0.3007,-0.2953,-0.287,-0.2781,-0.2872,-0.2534,-0.2521,-0.2826,-0.2804,-0.2807,-0.281,-0.2227,-0.2221,-0.2217,-0.2213,0,-0.2391,-0.2415,-0.2441,-0.2468,-0.2498,-0.2539,-0.2594,-0.2628,-0.2752,-0.2808,-0.287,-0.2896,-0.286,-0.2689,-0.26,-0.252,-0.2537,-0.2436,-0.2809,-0.2353,-0.2299,-0.2277,-0.2297,-0.217,-0.2174,-0.2177,-0.218,-0.2181,-0.232,-0.2316,-0.2342,-0.2355,-0.2389,-0.2406,-0.2398,-0.2472,-0.2519,-0.256,-0.2682,-0.2644,-0.2607,-0.2372,-0.2228,-0.2103,-0.2291,-0.2177,-0.219,-0.2209,-0.2189,-0.2137,-0.1969,-0.1972,-0.1975,-0.1977,-0.1979,0,-0.2212,-0.2219,-0.2225,-0.2233,-0.2206,-0.2274,-0.2312,-0.2267,-0.2264,-0.2336,-0.2359,-0.2134,-0.2021,-0.1983,-0.1733,-0.1685,-0.1645,-0.1599,-0.1545,-0.159,-0.1629,-0.1578,-0.1196,-0.1194,-0.1191,-0.1189,0,0,-0.2156,-0.2113,-0.2113,-0.2032,-0.2037,-0.1958,-0.1949,-0.191,-0.1913,-0.1859,-0.1842,-0.1976,-0.199,-0.1622,-0.1503,-0.1321,-0.1443,-0.1243,-0.1875,-0.1861,-0.1898,-0.1967,-0.1941,0,0,0,0,0]},{"header":{"parameterUnit":"m.s-1","parameterCategory":2,"la1":30.2991,"la2":30.254,"lo1":-89.0895,"lo2":-89.0444,"dy":0.0017,"dx":0.0017,"nx":28,"ny":28,"refTime":"2025-11-10T09:00:00:Z","depth":"2","parameterNumber":3,"parameterNumberName":"V-component_of_CURRENTS"},"data":[0,0,0,0,0,0,0,0,0,0,0,0,0,0,0,0,0,0,0,0,0,0,0,0,0,0,0,0,0,0,0,0,0,0,0,0,0,0,0,0,0,0,0,0,0,0,0,0,0,0,0,0,0,0,0,0,0,0,-0.0301,-0.0301,0,-0.0248,-0.0248,-0.0247,-0.0204,-0.0204,-0.0204,-0.0203,-0.0108,-0.0105,-0.0103,0,0,0,0,0,0,0,0,0,0,0,0,0,-0.0335,-0.0335,-0.0302,-0.0301,-0.03,-0.0248,-0.0248,-0.0247,-0.0204,-0.0204,-0.0203,-0.0203,-0.0108,-0.0106,-0.0103,0,0,0,0,0,0,0,0,0,0,0,0,0,-0.0304,-0.0335,-0.0302,-0.0274,-0.0271,-0.0249,-0.0248,-0.0247,-0.0204,-0.0204,-0.0203,-0.0203,-0.0109,-0.0106,-0.0103,-0.0093,0,0,-0.0093,-0.0091,0,0,0,0,0,0,0,0,-0.0306,-0.0303,-0.0278,-0.0275,-0.0272,-0.0233,-0.0224,-0.0193,-0.0205,-0.0229,-0.0203,-0.0203,-0.0147,-0.014,-0.0131,-0.0088,-0.0084,-0.0092,-0.009,-0.0089,-0.0088,0,0,0,0,0,0,0,-0.0308,-0.0305,-0.028,-0.0278,-0.0274,-0.0253,-0.0248,-0.0218,-0.019,-0.0226,-0.0223,-0.0219,-0.0144,-0.0134,-0.0128,-0.0083,-0.0092,-0.0089,-0.0087,-0.0086,-0.0025,-0.0025,0,0,0,0,0,0,-0.0319,-0.0307,-0.0281,-0.0278,-0.0289,-0.0253,-0.0248,-0.0245,-0.0191,-0.0183,-0.022,-0.0217,-0.014,-0.0132,-0.0125,-0.0121,-0.0089,-0.0086,-0.0084,-0.0025,-0.0025,-0.0026,0,0,0,0,0,0,-0.032,-0.0317,-0.0283,-0.0292,-0.0286,-0.0253,-0.0251,-0.0245,-0.0235,-0.0186,-0.0177,-0.0217,-0.0139,-0.0129,-0.0108,-0.0116,-0.0084,-0.0081,-0.0024,-0.0025,-0.0025,-0.0106,0,0,0,0,0,0,-0.0321,-0.0318,-0.0322,-0.0293,-0.0286,-0.028,-0.0251,-0.0244,-0.0234,-0.023,-0.0181,-0.0171,-0.0138,-0.0113,-0.0104,-0.0111,-0.0079,-0.0024,-0.0025,-0.0025,-0.0103,-0.0109,-0.0114,0,0,0,0,0,-0.0323,-0.0334,-0.0323,-0.0319,-0.0292,-0.0281,-0.0276,-0.025,-0.0234,-0.0238,-0.0205,-0.0173,-0.0111,-0.0111,-0.0101,-0.0106,-0.0024,-0.0024,-0.0025,-0.01,-0.0108,-0.0114,0,0,0,0,0,0,-0.0351,-0.033,-0.0317,-0.0321,-0.0306,-0.0275,-0.0274,-0.0256,-0.0233,-0.0228,-0.018,-0.0169,-0.0152,-0.0119,-0.012,-0.009,-0.006,-0.0059,-0.0121,-0.0128,-0.0133,-0.0141,-0.0076,0,0,0,0,0,-0.036,-0.0362,-0.0338,-0.0342,-0.0336,-0.0306,-0.0298,-0.0282,-0.0257,-0.0246,-0.0212,-0.0175,-0.0148,-0.0131,-0.0101,-0.0086,-0.0042,-0.0081,-0.0087,-0.0093,-0.0091,-0.0037,-0.0037,-0.0028,-0.0028,-0.0028,0,0,-0.0372,-0.0361,-0.0361,-0.0348,-0.0332,-0.0337,-0.03,-0.0294,-0.0298,-0.0239,-0.0232,-0.0195,-0.0149,-0.0135,-0.0123,-0.0108,-0.0074,-0.0094,-0.0099,-0.0094,-0.0037,-0.0038,-0.0039,-0.0029,-0.0029,-0.0029,0,0,-0.0404,-0.0387,-0.0402,-0.0395,-0.038,-0.0362,-0.0365,-0.0337,-0.0323,-0.0313,-0.0272,-0.0242,-0.0202,-0.017,-0.0149,-0.0167,-0.0109,-0.0157,-0.0191,-0.0139,-0.0139,-0.0139,-0.0094,-0.0089,-0.0159,-0.0159,-0.0159,0,-0.0421,-0.0436,-0.0406,-0.0421,-0.0423,-0.0379,-0.0401,-0.0381,-0.0351,-0.0341,-0.0321,-0.0255,-0.0218,-0.0193,-0.0201,-0.018,-0.0142,-0.0171,-0.0147,-0.0145,-0.0144,-0.0098,-0.0091,-0.0163,-0.0162,-0.0162,-0.0161,0,-0.0465,-0.0478,-0.0487,-0.0491,-0.0489,-0.0499,-0.0472,-0.0462,-0.0436,-0.0411,-0.038,-0.0324,-0.0283,-0.0268,-0.024,-0.0213,-0.0187,-0.0163,-0.0132,-0.0149,-0.01,-0.0092,-0.0168,-0.0167,-0.0166,-0.0165,0,0,-0.0503,-0.0517,-0.0521,-0.0541,-0.0529,-0.0535,-0.0535,-0.0523,-0.0522,-0.0476,-0.0464,-0.0411,-0.0368,-0.034,-0.0294,-0.0248,-0.0208,-0.0207,-0.0202,-0.0168,-0.0095,-0.0059,-0.0046,-0.0179,-0.0178,-0.0177,-0.0069,0,-0.055,-0.0601,-0.0589,-0.0636,-0.0661,-0.0626,-0.0632,-0.0612,-0.0578,-0.0552,-0.0478,-0.0447,-0.0399,-0.0378,-0.0325,-0.0239,-0.0188,-0.0239,-0.0077,-0.0072,-0.0043,-0.0036,-0.0051,0.0046,-0.006,-0.0059,-0.0058,0,-0.06,-0.063,-0.0686,-0.0716,-0.0722,-0.0736,-0.0734,-0.0734,-0.0677,-0.0648,-0.059,-0.0526,-0.0455,-0.0407,-0.0263,-0.0298,-0.0204,-0.013,-0.0124,-0.0054,-0.0021,0.005,0.0066,-0.0043,-0.0044,-0.0045,-0.0046,0,-0.0655,-0.0699,-0.0749,-0.076,-0.078,-0.0793,-0.0795,-0.0762,-0.0764,-0.07,-0.0682,-0.0583,-0.053,-0.0404,-0.0252,-0.0256,-0.0083,-0.0067,0.0058,0.0061,0.01,0.0105,0.0047,0.0047,0.0046,0.0046,0.0046,0,-0.0715,-0.0755,-0.0779,-0.081,-0.0866,-0.0851,-0.0887,-0.0869,-0.0837,-0.0842,-0.0733,-0.0699,-0.0524,-0.0403,-0.0265,-0.0078,-0.0088,0.0059,0.0096,0.0071,0.0072,0.0037,0.0035,0.005,0.0049,0.0048,0.0048,0,-0.077,-0.0783,-0.0849,-0.0884,-0.0897,-0.0936,-0.0961,-0.0982,-0.0935,-0.0933,-0.0914,-0.0781,-0.0624,-0.0441,-0.0228,-0.0097,0.0078,0.015,0.0106,0.0136,0.0189,0.0181,0.0295,0.0297,0.0299,0.0301,0.0302,0,-0.0804,-0.0842,-0.0911,-0.0956,-0.0976,-0.1023,-0.1057,-0.1037,-0.1052,-0.0983,-0.0984,-0.083,-0.0721,-0.0389,-0.0131,0.0126,0.0127,0.0273,0.0269,0.0192,0.0217,0.0206,0.0195,0.0286,0.0287,0.0288,0.0289,0,-0.0869,-0.089,-0.0945,-0.104,-0.1094,-0.1153,-0.119,-0.1218,-0.1188,-0.1164,-0.11,-0.1003,-0.0673,-0.038,-0.0024,0.0129,0.0227,0.03,0.0247,0.022,0.0192,0.0212,0.0201,0.0297,0.0296,0.0295,0.0295,0.0294,-0.0909,-0.0966,-0.1037,-0.1125,-0.1196,-0.1268,-0.1316,-0.1331,-0.1349,-0.1292,-0.1185,-0.0995,-0.0691,-0.0187,0.0072,0.0327,0.031,0.0391,0.0385,0.0379,0.0354,0.033,0.0456,0.0456,0.0456,0.0456,0.0456,0,-0.0956,-0.1024,-0.1117,-0.122,-0.1308,-0.1327,-0.1397,-0.1404,-0.142,-0.1322,-0.1222,-0.0865,-0.051,-0.0192,0.0217,0.0451,0.0435,0.0493,0.0428,0.0419,0.0412,0.0385,0.0497,0.0498,0.0498,0.0499,0,0,-0.0983,-0.108,-0.1132,-0.1286,-0.1364,-0.1455,-0.1496,-0.1476,-0.1406,-0.1303,-0.1146,-0.0909,-0.0512,-0.0209,0.0089,0.0303,0.0296,0.0325,0.027,0.0149,0.0139,0.0334,0.0282,0,0,0,0,0]}],[{"header":{"parameterUnit":"m.s-1","parameterCategory":2,"la1":30.2991,"la2":30.254,"lo1":-89.0895,"lo2":-89.0444,"dy":0.0017,"dx":0.0017,"nx":28,"ny":28,"refTime":"2025-11-10T09:00:00:Z","depth":"4","parameterNumber":2,"parameterNumberName":"U-component_of_CURRENTS"},"data":[0,0,0,0,0,0,0,0,0,0,0,0,0,0,0,0,0,0,0,0,0,0,0,0,0,0,0,0,0,0,0,0,0,0,0,0,0,0,0,0,0,0,0,0,0,0,0,0,0,0,0,0,0,0,0,0,0,0,-0.1888,-0.1889,0,-0.1972,-0.1973,-0.1974,-0.2018,-0.2018,-0.2019,-0.2019,-0.2096,-0.2098,-0.2099,0,0,0,0,0,0,0,0,0,0,0,0,0,-0.1771,-0.1773,-0.1888,-0.1889,-0.189,-0.1972,-0.1973,-0.1974,-0.2018,-0.2018,-0.2019,-0.2019,-0.2095,-0.2097,-0.21,0,0,0,0,0,0,0,0,0,0,0,0,0,-0.1833,-0.1773,-0.1888,-0.1924,-0.1928,-0.1972,-0.1973,-0.1974,-0.2018,-0.2018,-0.2019,-0.2019,-0.2095,-0.2097,-0.21,-0.2109,0,0,-0.2108,-0.2109,0,0,0,0,0,0,0,0,-0.1829,-0.1837,-0.1917,-0.1921,-0.1926,-0.1987,-0.196,-0.202,-0.2018,-0.1982,-0.2019,-0.2019,-0.206,-0.2065,-0.2078,-0.2113,-0.2116,-0.2109,-0.211,-0.2111,-0.2112,0,0,0,0,0,0,0,-0.1825,-0.1834,-0.1919,-0.1918,-0.1924,-0.1937,-0.1946,-0.1971,-0.2016,-0.1985,-0.1989,-0.2001,-0.2062,-0.2075,-0.208,-0.2117,-0.2108,-0.2111,-0.2113,-0.2114,-0.2247,-0.2249,0,0,0,0,0,0,-0.1818,-0.183,-0.1917,-0.1922,-0.188,-0.1939,-0.1949,-0.1965,-0.2016,-0.2025,-0.2001,-0.2003,-0.207,-0.2077,-0.2083,-0.217,-0.2111,-0.2114,-0.2115,-0.2245,-0.2248,-0.225,0,0,0,0,0,0,-0.1815,-0.1825,-0.1913,-0.1879,-0.1891,-0.1941,-0.1958,-0.1967,-0.2009,-0.2028,-0.2037,-0.2038,-0.2071,-0.2079,-0.2136,-0.2171,-0.2115,-0.2118,-0.2243,-0.2246,-0.2249,-0.2298,0,0,0,0,0,0,-0.1812,-0.1824,-0.1847,-0.1879,-0.1893,-0.1962,-0.1959,-0.1968,-0.2015,-0.202,-0.2063,-0.2069,-0.2072,-0.2132,-0.2139,-0.2173,-0.212,-0.2241,-0.2245,-0.2248,-0.2294,-0.2302,-0.2309,0,0,0,0,0,-0.1807,-0.1836,-0.1848,-0.1859,-0.1919,-0.1964,-0.1973,-0.2007,-0.2017,-0.2045,-0.2076,-0.2069,-0.2159,-0.2136,-0.2143,-0.218,-0.2239,-0.2243,-0.2248,-0.2291,-0.2301,-0.2309,0,0,0,0,0,0,-0.1799,-0.1844,-0.1858,-0.19,-0.1939,-0.1973,-0.2007,-0.2025,-0.2072,-0.2083,-0.2094,-0.2103,-0.2167,-0.2169,-0.2143,-0.223,-0.2198,-0.2204,-0.2228,-0.2238,-0.2245,-0.2237,-0.2122,0,0,0,0,0,-0.1807,-0.1841,-0.1881,-0.1918,-0.1941,-0.1978,-0.2006,-0.203,-0.2068,-0.209,-0.2121,-0.2153,-0.2186,-0.2209,-0.2239,-0.2286,-0.2265,-0.2315,-0.2323,-0.2329,-0.2329,-0.233,-0.2337,-0.2264,-0.2264,-0.2264,0,0,-0.1815,-0.1844,-0.1865,-0.1919,-0.1953,-0.1994,-0.1997,-0.205,-0.2089,-0.209,-0.2163,-0.2186,-0.2206,-0.2262,-0.2289,-0.227,-0.2339,-0.2335,-0.234,-0.2336,-0.2335,-0.2342,-0.2348,-0.2267,-0.2266,-0.2266,0,0,-0.1836,-0.1875,-0.1907,-0.1945,-0.2002,-0.2027,-0.2048,-0.2102,-0.2136,-0.2199,-0.2211,-0.2257,-0.2312,-0.2331,-0.2345,-0.2414,-0.2381,-0.2429,-0.2459,-0.2461,-0.2466,-0.247,-0.2444,-0.2446,-0.2429,-0.243,-0.243,0,-0.1846,-0.1888,-0.1926,-0.1966,-0.2001,-0.2044,-0.2086,-0.2127,-0.2195,-0.2223,-0.2233,-0.2318,-0.2342,-0.2392,-0.242,-0.2431,-0.2414,-0.242,-0.2468,-0.2472,-0.2476,-0.2448,-0.2449,-0.2432,-0.2432,-0.2432,-0.2432,0,-0.1879,-0.1928,-0.1954,-0.2016,-0.206,-0.2107,-0.2162,-0.2215,-0.2258,-0.2289,-0.2363,-0.2396,-0.244,-0.2461,-0.2465,-0.251,-0.2483,-0.2477,-0.2438,-0.2486,-0.2454,-0.2454,-0.2437,-0.2436,-0.2435,-0.2434,0,0,-0.1856,-0.1957,-0.1969,-0.2006,-0.2091,-0.2125,-0.2201,-0.2267,-0.2307,-0.2377,-0.2421,-0.2493,-0.2508,-0.2525,-0.2538,-0.2546,-0.2562,-0.2527,-0.2526,-0.2488,-0.2543,-0.2389,-0.2373,-0.2562,-0.2562,-0.2563,-0.2506,0,-0.1871,-0.1947,-0.1998,-0.2075,-0.2117,-0.2184,-0.2245,-0.2312,-0.2366,-0.2421,-0.2464,-0.2516,-0.2532,-0.2555,-0.2571,-0.2569,-0.2567,-0.2576,-0.2514,-0.2512,-0.2358,-0.237,-0.2565,-0.2506,-0.2506,-0.2506,-0.2506,0,-0.1874,-0.1927,-0.2005,-0.2101,-0.2126,-0.2183,-0.2275,-0.2333,-0.2415,-0.2457,-0.2513,-0.2541,-0.2589,-0.2584,-0.2598,-0.2602,-0.258,-0.2567,-0.2564,-0.24,-0.2357,-0.2453,-0.2506,-0.2506,-0.2506,-0.2506,-0.2506,0,-0.1817,-0.1927,-0.1989,-0.2025,-0.214,-0.2192,-0.2254,-0.2345,-0.239,-0.2476,-0.2508,-0.2565,-0.2592,-0.2591,-0.2587,-0.2592,-0.257,-0.2568,-0.2402,-0.239,-0.2525,-0.2521,-0.2559,-0.2559,-0.2559,-0.2559,-0.2559,0,-0.1789,-0.1842,-0.1974,-0.2005,-0.2075,-0.2168,-0.2241,-0.231,-0.2396,-0.2429,-0.2519,-0.2537,-0.2597,-0.2596,-0.2582,-0.2482,-0.2566,-0.2396,-0.2364,-0.2547,-0.2546,-0.2524,-0.252,-0.2557,-0.2558,-0.2558,-0.2558,0,-0.1708,-0.18,-0.1874,-0.2007,-0.205,-0.2099,-0.2223,-0.2259,-0.2363,-0.2406,-0.2434,-0.2518,-0.2514,-0.254,-0.2526,-0.245,-0.2388,-0.2333,-0.2511,-0.2493,-0.2206,-0.2206,-0.2124,-0.2118,-0.2113,-0.2109,-0.2105,0,-0.1669,-0.1703,-0.1851,-0.189,-0.1955,-0.2045,-0.2095,-0.2223,-0.225,-0.2368,-0.2359,-0.241,-0.2446,-0.2293,-0.2347,-0.2281,-0.2263,-0.2203,-0.2217,-0.2183,-0.2161,-0.217,-0.2177,-0.2097,-0.2096,-0.2095,-0.2093,0,-0.1582,-0.1653,-0.1711,-0.1792,-0.1861,-0.1922,-0.2,-0.2007,-0.2131,-0.225,-0.2222,-0.2208,-0.2194,-0.2178,-0.214,-0.2102,-0.2228,-0.215,-0.2161,-0.2173,-0.215,-0.2135,-0.2148,-0.2076,-0.2078,-0.208,-0.2081,0,-0.1514,-0.1532,-0.1615,-0.1666,-0.1746,-0.176,-0.1828,-0.1854,-0.1901,-0.2034,-0.2018,-0.2084,-0.2169,-0.2083,-0.2053,-0.1997,-0.1968,-0.1895,-0.1919,-0.1938,-0.1905,-0.185,-0.1643,0,0,0,0,0,-0.1434,-0.1435,-0.1475,-0.1525,-0.1596,-0.1637,-0.1739,-0.1809,-0.1933,-0.1858,-0.1932,-0.1914,-0.1872,-0.1909,-0.181,-0.1963,-0.1975,-0.1838,-0.1904,-0.1979,-0.1999,-0.1977,0,0,0,0,0,0,-0.1379,-0.1416,-0.1425,-0.1386,-0.139,-0.1447,-0.1507,-0.1598,-0.1566,-0.1701,-0.1689,-0.1787,-0.1776,-0.1898,-0.1768,-0.1776,-0.1773,-0.1887,-0.1881,-0.1967,-0.1986,-0.2002,-0.1987,0,0,0,0,0]},{"header":{"parameterUnit":"m.s-1","parameterCategory":2,"la1":30.2991,"la2":30.254,"lo1":-89.0895,"lo2":-89.0444,"dy":0.0017,"dx":0.0017,"nx":28,"ny":28,"refTime":"2025-11-10T09:00:00:Z","depth":"4","parameterNumber":3,"parameterNumberName":"V-component_of_CURRENTS"},"data":[0,0,0,0,0,0,0,0,0,0,0,0,0,0,0,0,0,0,0,0,0,0,0,0,0,0,0,0,0,0,0,0,0,0,0,0,0,0,0,0,0,0,0,0,0,0,0,0,0,0,0,0,0,0,0,0,0,0,-0.0115,-0.0115,0,-0.0081,-0.008,-0.008,-0.0051,-0.0051,-0.005,-0.005,0.0016,0.0017,0.0019,0,0,0,0,0,0,0,0,0,0,0,0,0,-0.0128,-0.0128,-0.0115,-0.0114,-0.0114,-0.0081,-0.008,-0.008,-0.0051,-0.0051,-0.005,-0.005,0.0015,0.0017,0.0019,0,0,0,0,0,0,0,0,0,0,0,0,0,-0.011,-0.0128,-0.0115,-0.0096,-0.0094,-0.0081,-0.008,-0.008,-0.0051,-0.0051,-0.005,-0.005,0.0015,0.0017,0.0019,0.0025,0,0,0.0026,0.0027,0,0,0,0,0,0,0,0,-0.0111,-0.011,-0.0099,-0.0098,-0.0095,-0.007,-0.0061,-0.0043,-0.0051,-0.0067,-0.005,-0.005,-0.0011,-0.0006,-0.0,0.0029,0.0031,0.0026,0.0028,0.0029,0.0029,0,0,0,0,0,0,0,-0.0113,-0.0111,-0.0101,-0.0099,-0.0097,-0.008,-0.0078,-0.0057,-0.004,-0.0065,-0.0063,-0.0061,-0.0009,-0.0003,0.0001,0.0032,0.0026,0.0028,0.003,0.003,0.0058,0.0058,0,0,0,0,0,0,-0.012,-0.0112,-0.0102,-0.01,-0.0103,-0.0081,-0.0078,-0.0078,-0.0041,-0.0036,-0.0061,-0.006,-0.0007,-0.0001,0.0004,-0.0008,0.0029,0.0031,0.0032,0.0059,0.0058,0.0058,0,0,0,0,0,0,-0.0121,-0.012,-0.0103,-0.0106,-0.0102,-0.0081,-0.0082,-0.0078,-0.0074,-0.0038,-0.0032,-0.0062,-0.0006,0.0001,0.0011,-0.0004,0.0032,0.0034,0.006,0.0059,0.0058,-0.0018,0,0,0,0,0,0,-0.0121,-0.012,-0.0126,-0.0106,-0.0103,-0.0105,-0.0082,-0.0077,-0.0073,-0.007,-0.0037,-0.003,-0.0005,0.0007,0.0013,-0.0,0.0036,0.0061,0.0059,0.0058,-0.0014,-0.0021,-0.0027,0,0,0,0,0,-0.0122,-0.0134,-0.0126,-0.0125,-0.011,-0.0106,-0.0103,-0.0085,-0.0073,-0.0079,-0.0058,-0.0031,0.0004,0.0008,0.0015,0.0002,0.0061,0.006,0.0058,-0.0012,-0.002,-0.0027,0,0,0,0,0,0,-0.0144,-0.0132,-0.0123,-0.013,-0.0123,-0.0101,-0.0104,-0.0091,-0.0078,-0.0076,-0.004,-0.0033,-0.003,-0.0003,0.0001,0.0007,0.0038,0.0038,-0.0018,-0.0025,-0.0032,-0.0046,0.0037,0,0,0,0,0,-0.0151,-0.0156,-0.0141,-0.0148,-0.0146,-0.0126,-0.0122,-0.0111,-0.0096,-0.009,-0.0067,-0.0043,-0.0029,-0.0019,-0.0001,0.0003,0.0038,0.0,-0.0006,-0.0012,-0.0018,0.0012,0.0008,0.0053,0.0053,0.0053,0,0,-0.0161,-0.0156,-0.0158,-0.0153,-0.0144,-0.0154,-0.0122,-0.0123,-0.0134,-0.0085,-0.0091,-0.0065,-0.0034,-0.0033,-0.0029,-0.0013,-0.0003,-0.0013,-0.0019,-0.0022,0.0011,0.0006,0.0002,0.0052,0.0052,0.0052,0,0,-0.0189,-0.018,-0.0195,-0.0194,-0.0187,-0.0177,-0.0181,-0.0165,-0.0159,-0.016,-0.0131,-0.0117,-0.0091,-0.0076,-0.0064,-0.0092,-0.0038,-0.0082,-0.0124,-0.0094,-0.0098,-0.01,-0.005,-0.0047,-0.0083,-0.0084,-0.0084,0,-0.0203,-0.0221,-0.02,-0.0217,-0.0224,-0.0193,-0.0217,-0.0209,-0.0193,-0.0193,-0.0173,-0.0142,-0.0114,-0.0117,-0.0127,-0.0108,-0.0072,-0.01,-0.0103,-0.0105,-0.0106,-0.0054,-0.005,-0.0087,-0.0087,-0.0087,-0.0086,0,-0.0242,-0.026,-0.027,-0.0282,-0.0287,-0.0302,-0.029,-0.0292,-0.0278,-0.0265,-0.026,-0.0222,-0.0203,-0.0192,-0.0168,-0.0168,-0.0132,-0.0116,-0.0087,-0.0116,-0.0058,-0.0053,-0.0093,-0.0092,-0.009,-0.0089,0,0,-0.0267,-0.0294,-0.0299,-0.0323,-0.0325,-0.0337,-0.0355,-0.0363,-0.0376,-0.0349,-0.0359,-0.0333,-0.03,-0.0284,-0.0248,-0.0221,-0.0196,-0.0177,-0.0174,-0.0131,-0.0111,-0.0082,-0.0072,-0.0179,-0.0179,-0.0179,-0.0063,0,-0.0306,-0.036,-0.0359,-0.0413,-0.044,-0.0427,-0.0449,-0.045,-0.0435,-0.0433,-0.039,-0.0381,-0.0339,-0.0326,-0.0297,-0.0224,-0.0187,-0.0227,-0.0086,-0.0081,-0.0056,-0.0068,-0.0178,-0.0059,-0.0057,-0.0056,-0.0056,0,-0.0345,-0.0378,-0.0439,-0.0487,-0.0497,-0.0524,-0.0551,-0.0565,-0.0549,-0.0534,-0.0509,-0.0464,-0.0426,-0.0382,-0.0275,-0.03,-0.0215,-0.0151,-0.0145,-0.009,-0.0043,-0.0024,-0.0046,-0.0046,-0.0047,-0.0048,-0.0049,0,-0.0378,-0.0436,-0.049,-0.0506,-0.0549,-0.0577,-0.0596,-0.0597,-0.0615,-0.0591,-0.0586,-0.053,-0.0494,-0.0399,-0.0263,-0.0269,-0.0126,-0.0116,-0.0005,-0.0001,-0.0028,-0.0026,-0.0037,-0.0037,-0.0038,-0.0038,-0.0038,0,-0.0418,-0.0463,-0.0513,-0.0544,-0.0615,-0.0622,-0.0679,-0.0684,-0.0686,-0.0704,-0.0638,-0.0619,-0.0497,-0.0396,-0.0277,-0.0119,-0.0132,-0.0013,0.0025,-0.0059,-0.0063,-0.0022,-0.0022,-0.0034,-0.0035,-0.0035,-0.0036,0,-0.0442,-0.0473,-0.0544,-0.0607,-0.0633,-0.0681,-0.0741,-0.0773,-0.0762,-0.0777,-0.0771,-0.0683,-0.0552,-0.0407,-0.0234,-0.0134,0.0011,0.0076,-0.0007,0.0024,0.0122,0.0117,0.0195,0.0197,0.0198,0.02,0.0201,0,-0.0458,-0.0495,-0.0592,-0.0643,-0.0677,-0.0745,-0.0793,-0.0812,-0.0833,-0.0808,-0.0808,-0.0695,-0.0617,-0.0341,-0.0193,0.004,0.0075,0.0157,0.0117,0.0114,0.0143,0.0135,0.0128,0.0203,0.0204,0.0204,0.0204,0,-0.0486,-0.0522,-0.058,-0.0686,-0.0755,-0.0829,-0.0886,-0.0908,-0.0914,-0.0909,-0.0823,-0.0685,-0.0527,-0.0331,-0.014,0.0024,0.0099,0.0174,0.0171,0.0134,0.0125,0.015,0.0142,0.021,0.0209,0.0209,0.0208,0,-0.0502,-0.0551,-0.063,-0.072,-0.0813,-0.0882,-0.0914,-0.0921,-0.0934,-0.0892,-0.0859,-0.0688,-0.0593,-0.0336,-0.0164,0.0001,0.0032,0.0082,0.0084,0.008,0.0007,-0.0022,0.0047,0,0,0,0,0,-0.0511,-0.057,-0.066,-0.0757,-0.0847,-0.0898,-0.0963,-0.0977,-0.0979,-0.0921,-0.0889,-0.0735,-0.0473,-0.0356,-0.0187,-0.0148,0.005,0.0055,0.0104,0.024,0.0234,0.017,0,0,0,0,0,0,-0.052,-0.0604,-0.0655,-0.0763,-0.0832,-0.0923,-0.0967,-0.0971,-0.0925,-0.0902,-0.076,-0.0686,-0.0431,-0.0567,-0.018,-0.0132,-0.0075,0.0177,0.0181,0.0244,0.0238,0.0233,0.0165,0,0,0,0,0]}]]